Orbital Elements
The following improved orbital elements by Kenji Muraoka, are
from 119 observations 1984 to 1997, perturbations by 9 Plantes,
Moon and 5 minor planets were taken into account.
The mean residual is +/- 0.74 arc seconds.
Epoch = 1997 Feb. 1.0 TT JDT = 2450480.5
T = 1997 Feb. 3.49811 +/- 0.00050 (m.e.) TT
Peri. = 93.27034 +/- 0.00025
Node = 70.96930 +/- 0.00023 (2000.0)
Incl. = 6.18812 +/- 0.00002
q = 2.2292784 +/- 0.0000023 AU
e = 0.3650973 +/- 0.0000006
a = 3.5112129 +/- 0.0000014 AU
n = 0.14980225 +/- 0.00000009
P = 6.579 +/- 0.0000038 years
|